DW3072 Weather Reports


time (UTC)temp
C
wind
direction
speed
KPH
gust
KPH
rain 1hr
cm
rain 24hr
cm
rain mn
cm
humidity
%
barometer
mb
20260504150531 18 232 8.0 22.5 0.00 0.00 0.00 39 1011.3
20260504140530 16 223 3.2 11.3 0.00 0.00 0.00 47 1011.7
20260504130536 13 226 1.6 11.3 0.00 0.00 0.00 52 1012.2
20260504110606 2 131 0.0 0.0 0.00 0.00 0.00 87 1012.6
20260504100547 2 131 0.0 0.0 0.00 0.00 0.00 85 1012.3
20260504080547 3 131 0.0 1.6 0.00 0.00 0.00 82 1012.4
20260504050548 4 131 0.0 3.2 0.00 0.00 0.00 80 1012.2
20260504045058 3 81 0.0 3.2 0.00 0.00 0.00 80 1012.3
20260504043535 3 81 0.0 3.2 0.00 0.00 0.00 80 1012.3
20260504042027 4 72 0.0 1.6 0.00 0.00 0.00 80 1012.2
20260504040527 4 72 0.0 0.0 0.00 0.00 0.00 79 1011.9
20260504035041 4 72 0.0 1.6 0.00 0.00 0.00 79 1011.8
20260504033538 5 36 0.0 0.0 0.00 0.00 0.00 78 1011.6
20260504032029 5 36 0.0 0.0 0.00 0.00 0.00 76 1011.6
20260504030554 5 36 0.0 0.0 0.00 0.00 0.00 75 1011.6
20260504025044 6 36 0.0 0.0 0.00 0.00 0.00 74 1011.6
20260504023559 6 36 0.0 0.0 0.00 0.00 0.00 72 1011.6
20260504022031 6 36 0.0 0.0 0.00 0.00 0.00 70 1011.7
20260504020531 7 36 0.0 0.0 0.00 0.00 0.00 69 1011.7
20260504015045 7 36 0.0 0.0 0.00 0.00 0.00 68 1011.4
20260504013541 8 36 0.0 0.0 0.00 0.00 0.00 65 1011.3
20260504012104 8 36 0.0 0.0 0.00 0.00 0.00 62 1011.4
20260504010540 9 36 0.0 0.0 0.00 0.00 0.00 62 1011.1
20260504005027 10 36 0.0 0.0 0.00 0.00 0.00 61 1011.0
20260504003552 10 36 0.0 0.0 0.00 0.00 0.00 57 1010.7
20260504002045 11 105 0.0 1.6 0.00 0.00 0.00 55 1010.7
20260504000541 12 122 0.0 6.4 0.00 0.00 0.00 52 1010.5
20260503235032 13 124 0.0 3.2 0.00 0.00 0.00 46 1010.3
20260503233532 13 172 0.0 4.8 0.00 0.00 0.00 41 1010.1
20260503232026 13 180 4.8 11.3 0.00 0.00 0.00 39 1010.1
20260503230526 14 228 3.2 8.0 0.00 0.00 0.00 44 1010.0
20260503225038 14 195 1.6 11.3 0.00 0.00 0.00 38 1009.8
20260503223606 14 141 3.2 4.8 0.00 0.00 0.00 35 1009.9
20260503222042 15 115 1.6 8.0 0.00 0.00 0.00 35 1010.0
20260503220534 15 92 4.8 19.3 0.00 0.00 0.00 35 1009.9
20260503215044 15 170 3.2 8.0 0.00 0.00 0.00 33 1009.8
20260503213556 15 260 6.4 14.5 0.00 0.00 0.00 35 1009.8
20260503212046 15 180 3.2 19.3 0.00 0.00 0.00 33 1009.6
20260503210605 15 108 3.2 14.5 0.00 0.00 0.00 32 1009.4
20260503205039 15 168 3.2 12.9 0.00 0.00 0.00 33 1009.4
20260503203536 14 220 6.4 14.5 0.00 0.00 0.00 33 1009.6
20260503202029 14 94 1.6 4.8 0.00 0.00 0.00 33 1009.7
20260503200528 14 304 3.2 12.9 0.00 0.00 0.00 35 1009.9
20260503195042 13 135 6.4 16.1 0.00 0.00 0.00 34 1010.1
20260503193537 13 313 6.4 12.9 0.00 0.00 0.00 32 1010.3
20260503192045 14 63 8.0 14.5 0.00 0.00 0.00 34 1010.5
20260503190544 13 141 6.4 19.3 0.00 0.00 0.00 34 1010.6
20260503185111 13 273 4.8 22.5 0.00 0.00 0.00 36 1010.6
20260503183545 13 253 9.7 22.5 0.00 0.00 0.00 34 1010.9
20260503182032 12 183 4.8 16.1 0.00 0.00 0.00 36 1011.1
20260503180605 12 155 8.0 19.3 0.00 0.00 0.00 36 1011.0
20260503175047 12 87 6.4 14.5 0.00 0.00 0.00 35 1011.2
20260503173551 13 136 6.4 30.6 0.00 0.00 0.00 35 1011.1
20260503172028 12 219 8.0 16.1 0.00 0.00 0.00 35 1011.2
20260503170526 12 167 8.0 20.9 0.00 0.00 0.00 36 1011.5